Regional Weather Roundup
Issued by NWS

Home | Current Version | Previous Version | Graphics & Text | Print | Product List | Glossary On
Versions: 1 2 3 4 5 6 7 8 9 10 11 12 13 14 15 16 17 18 19 20 21 22 23 24 25 26 27 28 29 30 31 32 33 34 35 36 37 38 39 40 41 42 43 44 45 46 47 48 49 50
000
ASUS45 KSLC 181710
RWRUT

UTAH REGIONAL WEATHER ROUNDUP
NATIONAL WEATHER SERVICE SALT LAKE CITY UT
1100 AM MDT SAT APR 18 2015

UTZ001>011-023>025-181800-

NORTHERN UTAH

CITY           SKY/WX    TMP DP  RH WIND       PRES   REMARKS
BRIGHAM CITY   SUNNY     56  37  49 CALM      30.06R
HILL AFB       SUNNY     56  35  46 NW6       30.05S
LOGAN          SUNNY     51  36  56 CALM      30.06S
OGDEN          SUNNY     58  36  43 W5        30.04S
PROVO AIRPORT  MOSUNNY   55  37  50 SE5       30.06F
SALT LAKE CITY SUNNY     59  37  44 VRB3      30.04S
VERNAL         MOSUNNY   53  37  54 S9        29.98F
WENDOVER       SUNNY     64  25  22 N8        30.06F
HEBER CITY     SUNNY     50  34  53 CALM      30.05F
WEST JORDAN    SUNNY     55  37  50 CALM      30.05F

$$

UTZ012>022-026-027-181800-

SOUTHERN/CENTRAL UTAH

CITY           SKY/WX    TMP DP  RH WIND       PRES   REMARKS
BLANDING       CLOUDY    42  37  83 SW5       30.12S
BRYCE CANYON   SUNNY     51  27  39 NE3       30.11F
CEDAR CITY     SUNNY     57  22  25 VRB3      30.09R
DELTA          SUNNY     56  27  33 CALM      30.08S
HANKSVILLE     SUNNY     52  43  71 SE3       30.04F
MILFORD        SUNNY     56  27  32 S3        30.08S
MOAB/CYNLANDS  SUNNY     47  42  83 SE6       30.01F
PRICE          SUNNY     51  37  58 SE6       30.00F
ST GEORGE      SUNNY     63  28  27 NW5       30.04F
KANAB          SUNNY     57  28  33 SE3       30.09F

$$

REGIONAL REPORTS     COLORADO/ARIZONA

CITY           SKY/WX    TMP DP  RH WIND       PRES   REMARKS
CRAIG, CO      SNOW      33  32  96 SW8       29.98F VSB 1/2 WCI  26
GRAND JUNCTION LGT RAIN  38  35  89 S3        30.02F
RIFLE          HVY SNOW  33  32  96 E5        30.02S VSB 1/4 WCI  29
MONTROSE       LGT RAIN  37  34  89 S6        30.05F WCI  32
CORTEZ         PTSUNNY   41  37  86 SW7       30.06F
PAGE, AZ       SUNNY     60  33  36 CALM      30.04F
GRAND CANYON   SUNNY     56  20  24 N10G23    30.11F
KINGMAN        SUNNY     72  13  10 N6        30.04S
FLAGSTAFF      SUNNY     55  21  26 VRB3      30.11F

$$

REGIONAL REPORTS    NEVADA/IDAHO/WYOMING

CITY           SKY/WX    TMP DP  RH WIND       PRES   REMARKS
LAS VEGAS, NV  SUNNY     73  16  11 S7        29.96S
ELY            SUNNY     57  16  20 N9        30.14F
ELKO           SUNNY     58  26  29 W5        30.14F
POCATELLO, ID  SUNNY     57  28  33 VRB7      30.10S
BURLEY         SUNNY     58  33  39 W10       30.09S
EVANSTON, WY   SUNNY     49  26  41 N14       30.07F
ROCK SPRINGS   SUNNY     46  36  68 MISG      30.01F
KEMMERER       SUNNY     50  32  50 W16       30.03F

$$


USA.gov is the U.S. government's official web portal to all federal, state and local government web resources and services.